Regional Weather Roundup
Issued by NWS State College, PA

Home | Current Version | Previous Version | Text Only | Print | Product List | Glossary Off
Versions: 1 2 3 4 5 6 7 8 9 10 11 12 13 14 15 16 17 18 19 20 21 22 23 24 25 26 27 28 29 30 31 32 33 34 35 36 37 38 39 40 41 42 43 44 45 46 47 48 49 50

000
ASUS41 KCTP 280410
RWRCTP

REGIONAL WEATHER ROUNDUP
NATIONAL WEATHER SERVICE STATE COLLEGE PA
1200 AM EDT THU JUL 28 2016

Note: "fair" indicates few or no clouds below 12,000 feet with no
significant weather and/or obstructions to visibility.

* = STATION THAT DOES NOT REPORT PRECIPITATION /E.G. RAIN...SNOW...ETC/
    THUNDER OR FOG.

PAZ002>004-007>009-013>016-020>023-029>032-280500-
WESTERN PENNSYLVANIA

CITY           SKY/WX    TMP DP  RH WIND       PRES   REMARKS
ERIE           CLEAR     71  61  70 S6        29.95S
MEADVILLE      CLEAR     70  56  61 CALM      29.99F
FRANKLIN*      CLEAR     66  61  82 N3        30.00F
NEW CASTLE     FAIR      69  64  84 CALM      29.98S
BEAVER COUNTY  NOT AVBL
BUTLER*        PTCLDY    68  63  83 CALM      30.00S
PITTSBURGH INT PTCLDY    76  60  57 CALM      29.97R
PITTSBURGH     PTCLDY    79  59  50 CALM      29.97R
INDIANA*       PTCLDY    68  61  77 CALM      30.01S
LATROBE        PTCLDY    70  66  88 CALM      29.98R
WASHINGTON CO* MOCLDY    75  70  83 CALM      29.98R
$$

PAZ004>006-010>012-017>019-024>028-033>037-041-042-045-046-049>053-280500-
CENTRAL PENNSYLVANIA

CITY           SKY/WX    TMP DP  RH WIND       PRES   REMARKS
BRADFORD       CLEAR     63  59  87 CALM      30.02S
DUBOIS         CLEAR     69  57  65 CALM      30.00S
CLEARFIELD     CLEAR     68  58  70 S3        29.99S
JOHNSTOWN      PTCLDY    75  51  43 CALM      30.02F
ALTOONA        CLEAR     67  58  72 CALM      29.98F
STATE COLLEGE  CLEAR     71  60  69 CALM      29.96F
WILLIAMSPORT   CLEAR     72  61  68 CALM      29.92S
SELINSGROVE    CLEAR     67  67 100 CALM      29.93S
FT INDIANTOWN  CLEAR     69  63  81 NE3       29.93S
CAPITAL CITY   CLEAR     76  66  71 SW3       29.92S
HARRISBURG     PTCLDY    77  70  79 SE5       29.91S
YORK           CLEAR     72  68  87 SE3       29.93S
$$

PAZ038>040-043-044-047-048-054-055-060>062-067>071-280500-
EASTERN PENNSYLVANIA

CITY           SKY/WX    TMP DP  RH WIND       PRES   REMARKS
SCRANTON       CLEAR     71  61  70 E6        29.95R
MOUNT POCONO   CLEAR     61  58  90 NW3       30.01R
ALLENTOWN      CLEAR     71  63  75 N5        29.93S
QUAKERTOWN*    CLEAR     72  66  83 CALM      29.94S
READING        CLEAR     73  64  73 CALM      29.92S
LANCASTER      CLEAR     71  66  84 CALM      29.93S
COATESVILLE    CLEAR     72  64  78 CALM      29.95S
POTTSTOWN      CLEAR     71  66  84 CALM      29.94S
BLUE BELL      CLEAR     68  68 100 CALM      29.91S
DOYLESTOWN     CLEAR     72  66  81 CALM      29.92S
WILLOW GROVE   NOT AVBL
NORTH PHILA    CLEAR     80  76  87 CALM      29.93S
PHILADELPHIA   PTCLDY    80  68  66 S3        29.91S
$$




USA.gov is the U.S. government's official web portal to all federal, state and local government web resources and services.